[[{"header":{"parameterUnit":"m.s-1","parameterCategory":1,"la1":30.2991,"la2":30.254,"lo1":-89.0895,"lo2":-89.0444,"dy":0.0017,"dx":0.0017,"nx":28,"ny":28,"refTime":"2024-06-22T09:00:00:Z","depth":0,"parameterNumber":2,"parameterNumberName":"U-component_of_WINDS"},"data":[0,0,0,0,0,0,0,0,0,0,0,0,0,0,0,0,0,0,0,0,0,0,0,0,0,0,0,0,0,0,0,0,0,0,0,0,0,0,0,0,0,0,0,0,0,0,0,0,0,0,0,0,0,0,0,0,0,0,1.1007,1.1007,0,1.1017,1.1017,1.1017,1.1002,1.1002,1.1001,1.1,1.101,1.1011,1.1012,0,0,0,0,0,0,0,0,0,0,0,0,0,1.0972,1.0973,1.1007,1.1007,1.1007,1.1017,1.1017,1.1017,1.1002,1.1002,1.1001,1.1,1.101,1.1011,1.1012,0,0,0,0,0,0,0,0,0,0,0,0,0,1.0985,1.0973,1.1007,1.1001,1.1,1.1017,1.1017,1.1017,1.1002,1.1001,1.1001,1.1,1.101,1.1011,1.1012,1.1035,0,0,1.1015,1.1016,0,0,0,0,0,0,0,0,1.0985,1.0987,1.1002,1.1001,1.1001,1.1008,1.1009,1.1023,1.1002,1.1002,1.1,1.1,1.101,1.1011,1.1015,1.1035,1.1036,1.1015,1.1016,1.1016,1.1017,0,0,0,0,0,0,0,1.0984,1.0986,1.1011,1.1002,1.1001,1.0997,1.0998,1.1011,1.101,1.1002,1.1,1.1002,1.1009,1.1013,1.1015,1.1036,1.1015,1.1016,1.1017,1.1017,1.1073,1.1074,0,0,0,0,0,0,1.0984,1.0985,1.1011,1.1011,1.0991,1.0998,1.0999,1.1006,1.101,1.101,1.1003,1.1001,1.1012,1.1013,1.1015,1.104,1.1016,1.1018,1.1018,1.1072,1.1073,1.1074,0,0,0,0,0,0,1.0983,1.0986,1.101,1.0998,1.1001,1.1,1.1007,1.1007,1.1011,1.1011,1.101,1.1007,1.1011,1.1013,1.1029,1.104,1.1018,1.1019,1.1071,1.1073,1.1074,1.1092,0,0,0,0,0,0,1.0982,1.0986,1.0995,1.0998,1.1001,1.1025,1.1008,1.1008,1.1013,1.1011,1.1015,1.1014,1.1011,1.1028,1.1031,1.1041,1.102,1.107,1.1072,1.1073,1.109,1.1094,1.1097,0,0,0,0,0,1.0981,1.1,1.0996,1.0999,1.1013,1.1026,1.1028,1.1023,1.1014,1.1023,1.1022,1.1014,1.1039,1.103,1.1033,1.1044,1.107,1.1072,1.1073,1.1089,1.1093,1.1096,0,0,0,0,0,0,1.0999,1.1001,1.0996,1.1017,1.1021,1.1023,1.1034,1.1028,1.1035,1.1033,1.1027,1.1028,1.1045,1.1046,1.1036,1.1065,1.1053,1.1055,1.1064,1.1067,1.107,1.1069,1.1021,0,0,0,0,0,1.1005,1.1016,1.1017,1.1035,1.1038,1.1036,1.1041,1.1037,1.1042,1.1043,1.1044,1.1048,1.1057,1.1062,1.107,1.1091,1.109,1.11,1.1103,1.1106,1.1107,1.1116,1.112,1.108,1.108,1.108,0,0,1.1018,1.1021,1.1028,1.1039,1.1042,1.1052,1.1037,1.1049,1.1056,1.1045,1.106,1.1061,1.1065,1.1082,1.109,1.1084,1.1118,1.1108,1.111,1.111,1.1119,1.1122,1.1126,1.1081,1.1081,1.1081,0,0,1.1047,1.1051,1.1066,1.1069,1.1073,1.1071,1.1075,1.1078,1.1078,1.1093,1.1084,1.1092,1.1107,1.111,1.1113,1.1141,1.1134,1.1144,1.116,1.1168,1.1172,1.1174,1.1183,1.1186,1.1146,1.1146,1.1146,0,1.1063,1.1078,1.1074,1.1086,1.109,1.108,1.1094,1.1097,1.1104,1.1107,1.11,1.1118,1.112,1.1137,1.1144,1.1148,1.115,1.1143,1.1172,1.1174,1.1177,1.1184,1.1188,1.1147,1.1147,1.1147,1.1147,0,1.1096,1.1107,1.1118,1.1124,1.113,1.1143,1.114,1.1146,1.1142,1.114,1.1155,1.1157,1.1164,1.1168,1.1164,1.1185,1.118,1.1173,1.116,1.1182,1.1189,1.1192,1.1149,1.1149,1.1148,1.1148,0,0,1.1137,1.1139,1.1143,1.1145,1.1149,1.1157,1.1169,1.1176,1.118,1.1185,1.1194,1.1207,1.1199,1.1203,1.1199,1.1207,1.1227,1.1198,1.1198,1.1202,1.1247,1.1252,1.1255,1.1222,1.1223,1.1224,1.1246,0,1.1164,1.1184,1.118,1.12,1.1208,1.1199,1.1209,1.1212,1.1211,1.1217,1.1216,1.1224,1.1215,1.1217,1.1224,1.1223,1.1236,1.1222,1.1229,1.123,1.1227,1.1259,1.1264,1.1286,1.1249,1.125,1.125,0,1.1198,1.1203,1.1224,1.1224,1.1228,1.1237,1.1242,1.1249,1.1252,1.1251,1.1254,1.1248,1.1259,1.1247,1.1261,1.1251,1.1254,1.1254,1.1255,1.1254,1.124,1.1258,1.1293,1.1295,1.1255,1.1254,1.1254,0,1.1223,1.1235,1.1248,1.1251,1.1252,1.1259,1.126,1.1262,1.1265,1.127,1.1272,1.1278,1.1281,1.1285,1.1281,1.1273,1.1295,1.1283,1.1292,1.1292,1.1296,1.1296,1.133,1.1301,1.1301,1.1301,1.1301,0,1.1252,1.1265,1.1259,1.1267,1.128,1.1275,1.1288,1.1288,1.1289,1.1297,1.1289,1.1296,1.129,1.1296,1.1293,1.1304,1.1306,1.1304,1.1303,1.1304,1.1304,1.1305,1.1302,1.1302,1.1302,1.1302,1.1301,0,1.1282,1.1279,1.1292,1.1292,1.1293,1.1302,1.1302,1.1309,1.1307,1.1316,1.1318,1.1315,1.1321,1.1318,1.1325,1.1323,1.1336,1.1334,1.1335,1.1334,1.1343,1.1342,1.1378,1.1382,1.1352,1.1352,1.1352,0,1.13,1.1309,1.131,1.1314,1.1315,1.1322,1.1326,1.1321,1.1325,1.1328,1.1334,1.134,1.1344,1.1355,1.1353,1.1358,1.1355,1.1367,1.1355,1.1355,1.1353,1.1351,1.1351,1.1369,1.1369,1.137,1.137,0,1.1332,1.133,1.1335,1.134,1.1344,1.1348,1.1351,1.1355,1.135,1.1354,1.1361,1.1364,1.1371,1.1376,1.138,1.138,1.1374,1.1374,1.1376,1.1376,1.1376,1.1374,1.134,1.1373,1.1372,1.1372,1.1372,1.1372,1.1355,1.1362,1.1363,1.1369,1.137,1.1373,1.1379,1.1378,1.1383,1.1388,1.1385,1.1392,1.1393,1.1397,1.1398,1.1403,1.1398,1.1402,1.1403,1.1403,1.1404,1.1376,1.1404,1.1404,1.1404,1.1404,1.1404,0,1.1385,1.1385,1.1391,1.1394,1.1399,1.1393,1.1395,1.1399,1.1405,1.1407,1.1411,1.1418,1.1423,1.1421,1.1425,1.143,1.1427,1.1431,1.143,1.1429,1.1409,1.1406,1.1433,1.1433,1.1433,1.1433,1.1433,1.1433,1.1401,1.1411,1.1409,1.142,1.142,1.1427,1.1428,1.143,1.1431,1.1439,1.1443,1.1442,1.1442,1.1446,1.145,1.1449,1.145,1.1455,1.1453,1.1434,1.1431,1.1428,1.1425,1.1456,1.1456,1.1473,1.1473,1.1473]},{"header":{"parameterUnit":"m.s-1","parameterCategory":1,"la1":30.2991,"la2":30.254,"lo1":-89.0895,"lo2":-89.0444,"dy":0.0017,"dx":0.0017,"nx":28,"ny":28,"refTime":"2024-06-22T09:00:00:Z","depth":0,"parameterNumber":3,"parameterNumberName":"V-component_of_WINDS"},"data":[0,0,0,0,0,0,0,0,0,0,0,0,0,0,0,0,0,0,0,0,0,0,0,0,0,0,0,0,0,0,0,0,0,0,0,0,0,0,0,0,0,0,0,0,0,0,0,0,0,0,0,0,0,0,0,0,0,0,0.6557,0.6558,0,0.6675,0.6676,0.6677,0.6695,0.6694,0.6693,0.6692,0.6813,0.6817,0.6821,0,0,0,0,0,0,0,0,0,0,0,0,0,0.6347,0.635,0.6557,0.6558,0.656,0.6674,0.6676,0.6678,0.6695,0.6694,0.6693,0.6691,0.6812,0.6816,0.6822,0,0,0,0,0,0,0,0,0,0,0,0,0,0.6448,0.6352,0.6556,0.6582,0.6586,0.6674,0.6676,0.6678,0.6695,0.6694,0.6692,0.6691,0.681,0.6816,0.6822,0.6893,0,0,0.6842,0.6844,0,0,0,0,0,0,0,0,0.6443,0.6456,0.6577,0.6581,0.6585,0.6668,0.6646,0.675,0.6696,0.6654,0.6692,0.669,0.6766,0.6776,0.6802,0.6899,0.6904,0.6842,0.6846,0.6849,0.685,0,0,0,0,0,0,0,0.6436,0.6451,0.6603,0.6579,0.6583,0.6588,0.6601,0.6666,0.6717,0.6657,0.6659,0.6673,0.6768,0.6795,0.6805,0.6906,0.6842,0.6848,0.6851,0.6854,0.7066,0.7068,0,0,0,0,0,0,0.6424,0.6445,0.66,0.6607,0.6508,0.6593,0.6607,0.6643,0.6717,0.6727,0.6674,0.6673,0.6785,0.6797,0.6809,0.6897,0.6849,0.6855,0.6858,0.7065,0.7067,0.7069,0,0,0,0,0,0,0.6419,0.6437,0.6595,0.6527,0.6547,0.6598,0.6639,0.6646,0.6674,0.6729,0.6739,0.6693,0.6785,0.68,0.6872,0.6901,0.6857,0.6863,0.7062,0.7065,0.7068,0.7073,0,0,0,0,0,0,0.6413,0.6436,0.6463,0.6527,0.655,0.6656,0.664,0.665,0.6685,0.6685,0.6749,0.6758,0.6785,0.6862,0.6878,0.6909,0.6868,0.706,0.7064,0.7067,0.707,0.7075,0.708,0,0,0,0,0,0.6406,0.646,0.6465,0.6483,0.6586,0.6658,0.6671,0.67,0.6687,0.6715,0.675,0.6756,0.6895,0.687,0.6888,0.6921,0.7058,0.7063,0.7067,0.7068,0.7074,0.708,0,0,0,0,0,0,0.6399,0.6469,0.6475,0.6552,0.6598,0.6661,0.6697,0.6706,0.6758,0.6755,0.6789,0.6803,0.6874,0.6904,0.6875,0.6993,0.6976,0.6984,0.6971,0.6977,0.6982,0.6973,0.6873,0,0,0,0,0,0.6406,0.6459,0.6517,0.6579,0.6602,0.6645,0.6678,0.6696,0.6746,0.6766,0.6807,0.6855,0.6909,0.6945,0.6998,0.7074,0.7089,0.7106,0.7111,0.7114,0.7121,0.7163,0.7172,0.7083,0.7083,0.7082,0,0,0.6423,0.6467,0.6498,0.6579,0.6618,0.6671,0.6662,0.6719,0.6759,0.6775,0.6845,0.6876,0.6933,0.7007,0.7042,0.7035,0.7149,0.712,0.7122,0.7127,0.7168,0.7177,0.7184,0.7085,0.7085,0.7084,0,0,0.6479,0.6518,0.6574,0.6613,0.6671,0.6699,0.6712,0.6773,0.6794,0.6866,0.6878,0.6926,0.7019,0.7058,0.7091,0.7161,0.7168,0.7177,0.7202,0.7243,0.725,0.7257,0.7282,0.729,0.7183,0.7183,0.7183,0,0.6492,0.6573,0.6602,0.6659,0.6693,0.6709,0.6766,0.6802,0.6875,0.6898,0.6889,0.7006,0.7045,0.7129,0.7145,0.7171,0.7187,0.717,0.7247,0.7254,0.726,0.7284,0.7294,0.7184,0.7184,0.7184,0.7184,0,0.6586,0.6642,0.668,0.6749,0.6789,0.6845,0.6882,0.6918,0.6932,0.6961,0.7033,0.708,0.7143,0.7164,0.7178,0.725,0.7243,0.724,0.7224,0.7269,0.7292,0.7302,0.7185,0.7185,0.7185,0.7185,0,0,0.6643,0.6727,0.6741,0.6772,0.6837,0.6881,0.6937,0.6998,0.7029,0.7078,0.7126,0.7204,0.7201,0.7238,0.7257,0.7292,0.7345,0.7285,0.7287,0.7295,0.7426,0.7429,0.7439,0.735,0.7351,0.7353,0.7421,0,0.6708,0.681,0.6837,0.6923,0.6975,0.699,0.7039,0.7084,0.7112,0.716,0.7191,0.7246,0.7238,0.726,0.7296,0.7331,0.7372,0.7326,0.7395,0.7397,0.7382,0.7451,0.7454,0.7517,0.7431,0.7432,0.7434,0,0.6797,0.6848,0.6939,0.6997,0.702,0.7063,0.7121,0.7167,0.7218,0.7236,0.7276,0.7291,0.7351,0.733,0.7412,0.738,0.741,0.7431,0.7434,0.7442,0.7419,0.7462,0.7538,0.7547,0.7448,0.7447,0.7446,0,0.683,0.6921,0.6988,0.7014,0.7083,0.7113,0.7143,0.7192,0.7227,0.7277,0.73,0.7357,0.7388,0.7431,0.7461,0.7444,0.7541,0.7523,0.7558,0.7557,0.7578,0.7577,0.766,0.7596,0.7596,0.7596,0.7596,0,0.69,0.6956,0.7003,0.7044,0.7106,0.7137,0.7197,0.7228,0.7271,0.7318,0.7334,0.7378,0.7415,0.7463,0.7487,0.7551,0.7565,0.7581,0.7587,0.7581,0.7579,0.7601,0.7598,0.7598,0.7598,0.7597,0.7597,0,0.6948,0.6982,0.7056,0.7114,0.713,0.7173,0.7224,0.7264,0.7292,0.7351,0.7366,0.7411,0.7469,0.7503,0.7576,0.7592,0.7663,0.7667,0.7646,0.7649,0.7682,0.7678,0.7783,0.7799,0.7723,0.7724,0.7725,0,0.6991,0.7034,0.7097,0.7129,0.7159,0.7212,0.7247,0.7278,0.7314,0.7375,0.7407,0.7466,0.7515,0.7607,0.7645,0.7701,0.7706,0.7739,0.7715,0.7707,0.7708,0.7705,0.7709,0.7744,0.7744,0.7745,0.7745,0,0.7063,0.7078,0.7128,0.7184,0.7226,0.7272,0.7317,0.7343,0.7381,0.7421,0.748,0.7518,0.7592,0.765,0.7709,0.774,0.7749,0.7752,0.7764,0.7758,0.7744,0.7752,0.7658,0.775,0.775,0.7749,0.7749,0.7749,0.711,0.7149,0.7199,0.7254,0.7292,0.7334,0.7374,0.7407,0.7457,0.752,0.7535,0.7597,0.7646,0.7726,0.7758,0.7807,0.7801,0.7817,0.7822,0.7825,0.7826,0.7735,0.7818,0.7818,0.7817,0.7817,0.7817,0,0.7184,0.7216,0.7267,0.733,0.7373,0.7378,0.7428,0.7464,0.7519,0.7563,0.7611,0.7679,0.7735,0.7777,0.7835,0.7866,0.7871,0.788,0.7878,0.7885,0.7828,0.7813,0.7874,0.7874,0.7874,0.7874,0.7874,0.7874,0.7227,0.7293,0.7313,0.7397,0.7429,0.749,0.7519,0.7557,0.7593,0.7668,0.7715,0.7742,0.7786,0.7847,0.7898,0.7909,0.793,0.7938,0.7949,0.7895,0.7889,0.7883,0.7869,0.7942,0.7942,0.8003,0.8003,0.8004]}]]